SCP
0 0 0 0 0 0 0 0 0 0 0 0 0 0 0 0 0 0 0 0 0 0 0 0 0 0 0 0 0 0 0 0 0 0 0 0 0 0 0 0 0 0 0 0 0 0 0 0 0
0 0 0 0 0 0 0 0 0 0 0 0 0 0 0 0 0 0 0 0 0 0 0 0 0 0 0 0 0 0 0 0 0 0 0 0 0 0 0 0 0 0 0 0 0 0 0 0 0
0 0 0 0 0 0 0 0 0 0 0 0 0 0 0 0 0 0 0 0 0 0 0 0 0 0 0 0 0 0 0 0 0 0 0 0 0 0 0 0 0 0 0 0 0 0 0 0 0
0 0 0 0 0 0 0 0 0 0 0 0 0 0 0 0 0 0 0 0 0 0 0 0 0 0 0 0 0 0 0 0 0 0 0 0 0 0 0 0 0 0 0 0 0 0 0 0 0
0 0 0 0 0 0 0 0 0 0 0 0 0 0 0 0 0 0 0 0 0 0 0 0 0 0 0 0 0 0 0 0 0 0 0 0 0 0 0 0 0 0 0 0 0 0 0 0 0
0 0 0 0 0 0 0 0 0 0 0 0 0 0 0 0 0 0 0 0 0 0 0 0 0 0 0 0 0 0 0 0 0 0 0 0 0 0 0 0 0 0 0 0 0 0 0 0 0
0 0 0 0 0 0 0 0 0 0 0 0 0 0 0 0 0 0 0 0 0 0 0 0 0 0 0 0 0 0 0 0 0 0 0 0 0 0 0 0 0 0 0 0 0 0 0 0 0
0 0 0 0 0 0 0 0 0 0 0 0 0 0 0 0 0 0 0 0 0 0 0 0 0 0 0 0 0 0 0 0 0 0 0 0 0 0 0 0 0 0 0 0 0 0 0 0 0
0 0 0 0 0 0 0 0 0 0 0 0 0 0 0 0 0 0 0 0 0 0 0 0 0 0 0 0 0 0 0 0 0 0 0 0 0 0 0 0 0 0 0 0 0 0 0 0 0
0 0 0 0 0 0 0 0 0 0 0 0 0 0 0 0 0 0 0 0 0 0 0 0 0 0 0 0 0 0 0 0 0 0 0 0 -0 0 0 0 0 0 0 0 0 0 0 0 0
0 0 0 0 0 0 0 0 0 0 0 0 0 0 0 0 0 0 0 0 0 0 0 0 0 0 0 0 0 0 0 0 0 0 -0 -0 -0 -0 0 0 0 0 0 0 0 0 0 0 0
0 0 0 0 0 0 0 0 0 0 0 0 0 0 0 0 0 0 0 -0 -0 -0 -0 0 0 0 0 0 0 0 0 0 0 -0 -0 0 0 0 0 0 0 0 0 0 0 0 0 0 0
0 0 0 0 0 0 0 0 0 0 0 0 0 0 0 0 0 0 -0 -0 -0 -0 -0 -0 0 0 0 0 0 0 0 0 0 0 0 0 0 0 0 0 0 0 0 0 0 0 0 0 0
0 0 0 0 0 0 0 0 0 0 0 0 0 0 0 0 0 0 0 0 -0 -0 -0 -0 -0 -0 0 0 0 0 0 -0 -0 0 0 0 0 0 0 0 0 0 0 0 0 0 0 0 0
0 0 0 0 0 0 0 0 0 0 0 0 0 0 0 0 0 0 0 0 -0 -0 -0 -0 -0 -0 -0 -0 -0 -0 -0 -0 -0 0 0 0 0 0 0 0 0 0 0 0 0 0 -0 0 0
0 0 0 0 0 0 0 0 0 0 0 0 0 0 0 0 0 0 0 0 0 -0 -0 -0 -0 -0 -0 -0 -0 -0 -0 -0 0 0 0 0 0 0 0 0 0 0 0 0 0 0 -0 0 0
0 0 0 0 0 0 0 0 0 0 0 0 0 0 0 0 0 0 0 0 0 0 -0 -0 -0 -0 -0 -0 -0 0 0 0 0 0 0 0 0 0 0 0 0 0 0 0 0 0 -0 0 0
0 0 0 0 0 0 0 0 0 0 0 0 0 0 0 0 0 0 0 0 0 0 0 0 -0 -0 -0 -0 0 0 0 0 0 0 0 0 0 0 0 0 0 0 0 0 0 0 0 0 0
0 0 0 0 0 0 0 0 0 0 0 0 0 0 0 0 0 0 0 0 -0 -0 0 0 -0 -0 -0 0 0 0 0 0 0 0 0 0 0 0 0 0 0 0 0 0 0 0 0 0 0
0 0 0 0 0 0 0 0 0 0 0 0 0 0 0 0 0 0 0 0 -0 -0 -0 -0 -0 -0 -0 -0 0 0 0 0 0 0 0 0 0 0 0 0 0 0 0 0 0 0 0 0 0
0 0 0 0 0 0 0 0 0 0 0 0 0 0 0 0 0 0 0 0 0 -0 -0 -0 -0 -0 -0 -0 0 0 0 0 0 0 0 0 0 0 0 0 0 0 0 0 0 0 0 0 0
0 0 0 0 0 0 0 0 0 0 0 0 0 0 0 0 0 0 0 0 0 -0 -0 -0 -0 -0 -0 0 0 0 0 0 0 0 0 0 0 0 0 0 0 0 0 0 0 0 0 0 0
0 0 0 0 0 0 0 0 0 0 0 0 0 0 0 0 0 0 0 0 0 0 -0 -0 -0 -0 -0 0 0 0 0 0 0 0 0 0 0 0 0 0 0 0 0 0 0 0 0 0 0
0 0 0 0 0 0 0 0 0 0 0 0 0 0 0 0 0 0 0 0 0 0 0 0 0 0 0 0 0 0 0 0 0 0 0 0 0 0 0 0 0 0 0 0 0 0 0 0 0
0 0 0 0 0 0 0 0 0 0 0 0 0 0 0 0 0 0 0 0 0 0 0 0 0 0 0 0 0 0 0 0 0 0 0 0 0 0 0 0 0 0 0 0 0 0 0 0 0
0 0 0 0 0 0 0 0 0 0 0 0 0 0 0 0 0 0 0 0 0 0 0 0 0 0 0 0 0 0 0 0 0 0 0 0 0 0 0 0 0 0 0 0 0 0 0 0 0
0 0 0 0 0 0 0 0 0 0 0 0 0 0 0 0 0 0 0 0 0 0 0 0 0 0 0 0 0 0 0 0 0 0 0 0 0 0 0 0 0 0 0 0 0 0 0 0 0
0 0 0 0 0 0 0 0 0 0 0 0 0 0 0 0 0 0 0 0 0 0 0 0 -0 0 0 0 0 0 0 0 0 0 0 0 0 0 0 0 0 0 0 0 0 0 0 0 0
0 0 0 0 0 0 0 0 0 0 0 0 0 0 0 0 0 0 0 0 0 0 0 0 0 0 0 0 0 0 0 0 0 0 0 0 0 0 0 0 0 0 0 0 0 0 0 0 0
0 0 0 0 0 0 0 0 0 0 0 0 0 0 0 0 0 0 0 0 0 0 0 0 0 0 0 0 0 0 0 0 0 0 0 0 0 0 0 0 0 0 0 0 0 0 0 0 0
Wind_Speed
2 3 2 3 5 5 2 1 0 1 2 1 3 5 5 4 2 3 1 4 6 5 4 7 9 10 10 11 11 11 11 11 10 10 10 10 9 9 8 7 6 6 6 6 6 6 5 5 5
1 1 3 4 4 3 1 1 1 0 3 3 3 4 5 4 3 4 3 4 7 6 5 6 9 10 10 11 10 10 10 10 10 10 9 9 9 8 7 6 5 5 5 5 5 5 5 5 5
1 2 3 4 3 2 1 0 1 2 2 2 3 4 4 3 3 3 3 7 7 6 5 6 9 10 10 10 10 9 9 9 9 9 9 8 8 7 6 6 5 5 5 5 5 5 5 5 5
2 3 4 4 2 1 1 0 2 3 2 3 4 4 3 2 2 4 7 8 7 5 4 6 9 9 10 9 9 9 9 8 8 8 8 7 6 6 5 5 5 5 5 5 5 5 5 5 5
3 3 4 3 1 1 1 0 2 2 2 3 3 4 3 4 5 8 8 8 7 5 4 5 9 9 9 9 9 8 8 7 7 7 6 6 5 5 5 5 5 5 5 5 5 5 5 5 5
4 4 4 1 1 1 1 1 2 3 3 3 4 4 2 2 5 7 7 6 6 5 4 4 7 8 8 8 7 6 6 6 6 5 5 4 4 4 4 4 4 4 4 5 5 6 6 6 5
3 3 2 2 0 1 1 1 2 3 3 3 3 5 2 2 4 6 6 5 5 5 4 3 3 4 5 6 6 5 5 4 4 4 4 4 4 4 4 4 4 5 4 5 5 5 6 6 6
3 4 2 0 1 0 1 2 2 3 2 3 3 6 4 4 5 6 6 5 4 4 4 3 3 3 3 3 3 3 3 3 4 4 4 5 6 6 6 6 6 6 5 5 6 5 5 6 6
3 4 1 2 2 0 1 2 2 2 4 3 3 3 5 9 8 7 5 4 3 3 2 2 2 2 2 2 2 3 4 5 5 5 6 6 4 4 4 6 6 6 7 6 6 6 6 6 6
3 2 2 2 2 1 1 2 2 3 4 4 5 5 8 9 8 7 6 4 3 2 1 1 1 1 1 1 2 2 3 3 3 3 3 3 3 3 4 7 8 8 8 8 7 7 6 5 3
2 3 1 0 1 2 2 2 2 4 2 3 7 9 9 8 7 6 5 4 4 3 2 2 2 1 1 1 1 1 2 2 3 3 3 2 3 3 3 3 4 5 6 4 5 5 3 3 2
2 1 1 0 1 2 2 3 3 2 2 3 7 10 8 8 7 7 6 4 3 3 2 2 2 2 1 1 1 1 1 2 2 2 2 2 2 2 2 2 2 2 2 3 3 2 3 3 3
1 1 1 2 3 3 4 4 3 3 5 7 8 8 7 6 5 3 4 3 3 2 2 1 2 2 2 2 1 2 1 1 1 1 2 2 1 2 2 2 2 3 2 2 3 3 3 3 3
1 1 3 2 3 2 5 3 4 2 5 8 7 6 5 5 5 4 4 3 3 2 2 1 2 2 3 2 1 1 1 1 1 2 2 2 1 1 2 2 2 2 2 2 2 2 2 2 2
1 3 4 3 2 1 4 4 3 2 6 7 6 4 4 3 3 4 5 5 4 3 2 2 3 3 3 3 2 2 1 1 1 2 2 2 2 2 1 2 2 2 2 2 2 2 2 2 3
3 4 2 3 1 2 5 2 1 2 6 6 4 4 3 2 3 3 4 4 4 4 3 2 3 4 3 3 2 2 2 2 2 2 2 2 2 2 2 2 2 3 2 2 2 2 2 2 3
5 3 1 2 2 2 4 1 0 2 5 5 4 4 3 2 1 2 3 4 4 4 4 3 4 4 3 3 3 3 2 2 2 2 2 2 3 3 2 2 2 3 2 2 2 2 1 2 2
2 2 1 0 1 3 4 1 1 2 4 4 3 3 2 2 3 2 3 3 4 3 4 4 4 4 4 3 3 3 3 2 2 2 2 3 2 3 2 2 3 3 2 3 3 2 2 1 2
4 3 1 1 1 2 3 2 1 2 3 3 2 3 3 3 1 2 3 3 4 3 3 4 4 3 3 2 2 2 1 1 2 2 2 3 3 3 3 2 3 3 2 2 2 2 2 2 2
4 4 1 1 2 3 3 2 1 2 3 4 4 4 3 2 2 2 2 3 3 3 3 3 3 3 2 2 2 2 1 0 1 2 2 3 3 3 2 2 2 2 2 3 3 2 1 2 3
2 4 3 2 2 4 3 3 2 1 1 2 1 2 3 4 4 3 2 2 2 3 4 4 3 3 3 3 3 3 3 2 3 3 3 3 3 3 3 2 2 2 2 2 2 1 1 1 2
2 3 5 4 3 2 2 0 2 1 0 1 2 2 3 3 3 3 3 3 3 3 3 3 3 3 3 3 3 3 2 1 1 1 2 3 3 3 3 3 2 2 1 1 2 1 1 1 1
3 4 4 3 4 3 2 2 4 0 2 4 4 4 3 3 4 4 4 4 3 2 3 3 3 3 2 3 3 3 2 1 0 1 2 3 3 3 3 3 2 2 2 2 2 2 1 1 1
6 6 5 4 4 1 1 2 3 3 5 5 4 4 4 3 3 3 3 3 3 3 3 3 3 2 2 3 3 3 3 1 1 2 2 2 2 3 4 3 2 2 2 2 2 1 1 1 1
5 5 3 3 2 2 1 2 6 5 4 5 6 5 4 4 4 4 4 4 3 4 4 3 3 2 2 2 2 2 2 2 1 0 1 1 2 2 3 3 2 2 2 2 1 1 1 1 1
3 5 5 4 3 2 1 3 5 3 1 2 3 4 4 4 3 3 4 4 3 4 4 4 3 2 2 2 2 2 2 1 1 1 1 1 1 2 2 2 2 2 2 2 2 1 1 1 1
5 2 3 6 2 1 2 4 4 2 3 3 4 5 5 4 4 3 3 3 3 4 4 4 4 2 2 2 2 1 1 1 1 1 0 1 1 1 2 2 2 2 2 2 1 1 2 1 1
4 6 4 5 4 1 2 2 3 2 2 2 4 4 4 4 4 3 3 3 2 3 2 3 3 3 2 2 1 1 1 1 1 0 1 1 2 2 2 2 2 2 2 2 1 1 2 2 2
4 3 4 4 4 5 2 5 4 6 5 6 5 5 5 5 4 3 2 2 2 3 2 2 2 2 1 1 1 1 0 0 0 0 1 1 2 2 1 1 2 2 2 2 2 1 1 2 2
4 6 6 5 3 3 3 6 3 3 4 6 6 5 5 5 4 3 3 3 3 3 2 2 2 2 1 1 1 1 1 1 1 1 2 1 2 2 1 1 1 2 2 2 1 2 2 1 2
Wind_Direction
49 67 64 50 51 52 46 335 315 8 50 47 66 86 97 82 90 125 119 128 123 117 113 117 114 109 106 105 102 100 97 95 93 94 93 92 91 91 88 85 82 79 76 72 64 58 55 53 53
83 74 50 55 76 66 342 312 358 320 140 139 78 74 78 71 71 103 118 127 122 119 113 116 115 110 107 104 101 98 97 95 93 93 91 90 89 87 85 81 77 72 69 66 58 49 43 43 40
83 48 67 66 83 140 185 339 114 93 127 109 78 60 70 87 111 131 145 132 118 113 110 120 117 113 109 105 102 98 97 95 94 92 88 86 86 85 81 75 69 62 57 55 49 41 35 34 29
66 42 51 66 80 214 213 183 130 121 88 60 91 72 56 41 130 136 132 128 119 115 111 121 118 114 109 106 102 99 97 95 93 90 88 85 82 77 69 61 55 48 43 40 36 28 25 24 19
56 68 59 50 10 311 306 287 131 119 98 77 95 86 41 10 95 117 125 125 125 118 110 121 121 116 111 106 101 100 99 96 93 91 88 81 75 67 61 51 44 32 25 22 19 14 8 11 11
57 64 79 98 312 322 338 35 92 82 95 99 97 95 55 64 115 126 125 122 123 120 107 105 119 115 110 107 104 102 99 95 90 83 77 67 58 46 36 27 23 19 15 9 6 4 2 1 2
97 90 122 154 225 357 42 49 103 106 94 98 107 99 93 122 128 122 115 108 105 104 98 83 83 98 108 108 104 98 92 85 77 62 51 43 35 23 13 9 6 6 2 1 0 359 359 3 3
112 99 88 120 131 329 5 59 81 105 108 102 98 126 157 167 126 106 96 91 90 88 88 82 71 67 63 62 87 84 74 59 44 34 28 30 26 15 5 3 359 357 354 355 355 355 358 3 4
85 77 143 196 163 269 15 67 42 63 93 67 58 112 138 127 116 109 101 87 90 99 87 90 84 70 60 45 43 38 32 30 28 23 25 32 21 7 0 357 358 358 358 359 360 357 0 7 6
81 120 212 207 180 151 68 71 80 69 73 71 75 80 110 121 129 135 141 146 150 153 149 132 114 89 66 45 46 27 28 27 26 27 26 22 16 8 14 7 7 5 5 7 10 11 16 19 8
124 176 229 288 159 131 109 73 62 100 97 155 147 136 130 135 143 150 159 161 171 168 163 161 146 117 87 46 35 26 29 28 22 26 34 35 27 15 16 8 1 1 7 9 5 12 14 12 4
124 244 190 63 91 97 104 99 73 84 168 149 143 139 139 149 158 164 165 165 154 147 171 169 143 133 113 87 48 39 38 28 20 14 29 45 33 22 11 11 357 359 358 2 7 6 4 4 4
155 289 71 106 81 78 79 81 95 63 93 104 114 126 142 151 157 160 154 154 149 158 167 162 144 137 111 94 66 62 48 37 22 16 24 54 56 32 18 11 6 0 1 7 3 7 9 6 3
178 99 60 58 74 66 89 67 69 75 111 117 128 141 156 161 165 155 149 150 162 172 171 161 127 120 115 110 102 80 61 49 40 30 27 53 70 56 34 16 7 2 -0 1 11 17 13 2 2
86 74 48 30 59 67 95 53 41 139 127 129 141 148 152 166 176 172 170 169 173 169 159 144 130 111 114 114 101 80 63 63 50 32 28 44 60 62 52 26 7 354 352 3 17 23 22 15 14
54 63 50 346 63 93 105 107 353 129 134 142 153 151 156 179 190 182 172 169 161 155 152 142 121 113 110 102 88 76 64 62 46 35 31 34 41 50 52 32 4 349 359 12 20 26 26 17 14
40 73 77 349 15 86 106 142 1 126 140 150 162 160 163 177 178 173 173 170 159 160 150 125 110 110 105 95 84 73 68 59 41 37 32 26 31 39 47 30 1 359 14 16 14 34 35 18 6
142 113 98 118 2 94 107 118 77 124 136 155 164 164 169 177 201 179 166 153 145 140 134 125 112 102 96 85 74 58 51 37 31 28 16 20 22 28 37 28 13 15 26 19 20 28 29 24 3
139 134 126 270 237 109 120 135 142 127 127 151 165 181 188 201 194 148 143 130 126 124 127 132 125 121 112 95 90 81 53 10 11 5 8 14 15 18 29 20 14 20 28 11 15 32 31 17 4
122 120 131 22 45 97 100 70 54 149 173 184 183 188 191 171 132 125 120 123 137 146 147 141 143 145 139 122 122 122 122 61 354 339 359 11 11 8 16 23 11 12 21 18 21 37 39 15 24
135 157 168 159 83 53 79 27 17 111 126 135 174 184 180 179 178 166 150 147 144 163 167 159 157 145 132 114 97 75 52 31 16 1 351 348 355 2 12 17 17 15 28 13 2 26 73 39 15
190 184 148 129 100 36 65 117 299 238 142 212 219 200 201 187 171 167 165 161 173 188 160 144 139 130 126 122 116 113 108 100 290 302 318 337 358 4 10 13 16 16 18 7 348 34 71 101 35
151 109 104 100 103 69 32 114 286 49 216 242 232 214 211 190 174 177 176 173 167 152 136 132 122 119 123 125 127 117 107 128 336 348 357 357 356 4 7 11 14 11 8 1 2 14 43 105 141
109 85 67 51 70 64 258 147 271 230 214 220 216 206 201 187 169 166 156 142 134 121 118 122 122 124 129 127 125 128 131 120 61 15 2 350 344 348 357 359 4 2 3 357 355 2 31 55 99
95 99 67 27 23 262 221 164 250 248 222 200 196 195 188 170 155 153 151 148 145 139 137 133 132 136 139 136 140 147 149 144 154 232 310 330 336 335 335 347 347 348 345 352 8 25 17 15 47
151 136 151 169 196 271 330 234 258 277 235 173 157 152 143 146 157 155 159 160 157 150 144 143 151 162 154 152 157 150 149 153 201 225 225 261 272 284 313 334 341 344 352 6 22 26 4 17 9
133 141 152 123 119 65 292 292 312 46 72 101 118 121 131 146 151 148 148 152 154 153 159 165 163 165 166 170 151 155 170 177 222 259 267 280 285 298 324 341 349 345 353 2 26 25 354 1 351
131 142 107 112 135 189 298 278 246 221 178 144 142 142 140 136 136 137 141 143 146 146 143 139 153 166 168 164 174 170 202 216 222 227 290 301 307 323 344 352 351 350 355 2 28 13 358 18 351
127 116 111 111 143 147 203 266 232 202 187 174 173 162 153 151 149 146 140 126 115 107 116 125 135 126 122 146 153 130 193 261 183 296 291 295 313 322 331 336 350 355 357 1 22 4 10 13 349
161 164 150 148 183 160 165 264 303 194 172 164 159 156 152 145 141 136 125 108 99 104 111 123 129 128 145 138 112 101 72 55 37 347 322 320 324 327 332 352 360 352 353 357 7 346 356 359 339